ISS (ZARYA) 1 25544U 98067A 26247.78883467 .00003383 00000+0 69578-4 0 9997 2 25544 51.6313 266.1160 0005045 107.1671 252.9870 15.48989366584098 POISK 1 36086U 09060A 26247.78883467 .00003383 00000+0 69578-4 0 9995 2 36086 51.6313 266.1160 0005045 107.1671 252.9870 15.48989366584428 CSS (TIANHE) 1 48274U 21035A 26247.91621201 .00011761 00000+0 14754-3 0 9998 2 48274 41.4676 197.9878 0002262 257.9565 102.1019 15.59582834305614 ISS (NAUKA) 1 49044U 21066A 26247.78883467 .00003383 00000+0 69578-4 0 9993 2 49044 51.6313 266.1160 0005045 107.1671 252.9870 15.48989366584460 FREGAT DEB 1 49271U 11037PF 26247.01476510 .00015030 00000+0 21890-1 0 9999 2 49271 51.6391 124.5640 0934907 97.0641 273.7322 12.44081723234851 CSS (WENTIAN) 1 53239U 22085A 26247.91621201 .00011761 00000+0 14754-3 0 9991 2 53239 41.4676 197.9878 0002262 257.9565 102.1019 15.59582834288239 CSS (MENGTIAN) 1 54216U 22143A 26247.91621201 .00011761 00000+0 14754-3 0 9992 2 54216 41.4676 197.9878 0002262 257.9565 102.1019 15.59582834305831 HRC MONOBLOCK CAMERA 1 66052U 98067XR 26246.20760799 .00146604 18927-4 48842-3 0 9990 2 66052 51.6165 234.2883 0005775 66.2966 293.8645 15.89958373 50341 SZ-21 MODULE 1 66515U 25246C 26247.79386223 .00048239 00000+0 20802-3 0 9993 2 66515 41.4688 168.8635 0011247 235.1803 124.7987 15.84021800 46333 DUPLEX 1 66906U 98067XS 26247.71713005 .00035960 00000+0 31312-3 0 9997 2 66906 51.6241 246.0822 0004408 93.4526 266.6975 15.68652897 43114 KNACKSAT-2 1 67683U 98067XZ 26247.72783605 .00043634 00000+0 39481-3 0 9996 2 67683 51.6251 252.1814 0007548 120.5259 239.6483 15.67596412 32728 GXIBA-1 1 67685U 98067YB 26246.27119834 .00062041 00000+0 48661-3 0 9997 2 67685 51.6235 257.4273 0008331 110.0312 250.1583 15.70907049 32527 UITMSAT-2 1 67686U 98067YC 26247.40024100 .00133041 00000+0 68224-3 0 9991 2 67686 51.6213 246.9220 0008025 81.3630 278.8280 15.80308564 32767 LEOPARD 1 67687U 98067YD 26247.59368230 .00072079 00000+0 55502-3 0 9995 2 67687 51.6250 251.2942 0007980 85.6493 274.5416 15.71289686 32646 HMU-SAT2 1 67688U 98067YE 26247.71996549 .00088614 00000+0 56639-3 0 9994 2 67688 51.6245 247.6021 0007831 84.7049 275.4844 15.75556356 32707 CREW DRAGON 12 1 67796U 26031A 26247.78883467 .00003383 00000+0 69578-4 0 9994 2 67796 51.6313 266.1160 0005045 107.1671 252.9870 15.48989366584969 PROGRESS-MS 33 1 68319U 26058A 26247.78883467 .00003383 00000+0 69578-4 0 9995 2 68319 51.6313 266.1160 0005045 107.1671 252.9870 15.48989366584589 CYGNUS NG-24 1 68689U 26079A 26247.78883467 .00003383 00000+0 69578-4 0 9998 2 68689 51.6313 266.1160 0005045 107.1671 252.9870 15.48989366585085 PROGRESS-MS 34 1 68837U 26093A 26247.78883467 .00003383 00000+0 69578-4 0 9999 2 68837 51.6313 266.1160 0005045 107.1671 252.9870 15.48989366585125 TIANZHOU-10 1 69049U 26102A 26247.91621201 .00011761 00000+0 14754-3 0 9991 2 69049 41.4676 197.9878 0002262 257.9565 102.1019 15.59582834306179 SHENZHOU-23 (SZ-23) 1 69180U 26113A 26247.91621201 .00011761 00000+0 14754-3 0 9999 2 69180 41.4676 197.9878 0002262 257.9565 102.1019 15.59582834305657